Regional Weather Roundup
Issued by NWS

Home | Current Version | Previous Version | Text Only | Print | Product List | Glossary Off
Versions: 1 2 3 4 5 6 7 8 9 10 11 12 13 14 15 16 17 18 19 20 21 22 23 24 25 26 27 28 29 30 31 32 33 34 35 36 37 38 39 40 41 42 43 44 45 46 47 48 49 50

515
ASUS43 KDTX 300101
RWRMI
MICHIGAN HOURLY REGIONAL WEATHER ROUNDUP
NATIONAL WEATHER SERVICE DETROIT/PONTIAC MI
900 PM EDT SAT APR 29 2017

NOTE: "FAIR" INDICATES FEW OR NO CLOUDS BELOW 12,000 FEET WITH NO
SIGNIFICANT WEATHER AND/OR OBSTRUCTION TO VISIBILITY.

MIZ047>049-052>055-059>063-066>070-074>076-081>083-300200-
SOUTHEAST LOWER MICHIGAN

CITY           SKY/WX    TMP DP  RH WIND       PRES   REMARKS
ADRIAN         CLOUDY    47  38  71 E12       30.18S
ALMA           CLOUDY    45  40  83 NE13      30.25F
ANN ARBOR      CLOUDY    47  32  56 NE10      30.19F
BAD AXE        FLURRIES  41  30  64 NE7       30.28R
CARO           CLOUDY    42  35  75 N6        30.29R
DETROIT CITY   CLOUDY    45  31  58 NE12      30.23R
DETROIT        CLOUDY    48  32  53 NE10      30.21S
FLINT          CLOUDY    47  36  65 NE14      30.24R
GROSSE ILE     CLOUDY    45  33  62 NE13G22   30.21S
HILLSDALE      CLOUDY    46  34  61 E14       30.15R
HOWELL         CLOUDY    48  32  53 NE9       30.21S

CITY           SKY/WX    TMP DP  RH WIND       PRES   REMARKS
JACKSON        CLOUDY    49  36  61 E13       30.18R
LAMBERTVILLE   CLOUDY    45  34  65 E9        30.19R
LANSING        CLOUDY    47  37  68 NE14      30.20F
LAPEER         CLOUDY    43  33  69 NE6       30.24S
MASON          CLOUDY    49  38  65 E10G16    30.19S
MONROE         CLOUDY    46  32  59 NE10G20   30.19F
MT. CLEMENS    CLOUDY    42  32  66 NE12      30.22R
PONTIAC        CLOUDY    46  31  55 NE14      30.20F
PORT HOPE        N/A     43  33  68 NE6       30.30R
PORT HURON     CLOUDY    39  30  70 NE8       30.25R WCI  34
TRI CITIES     LGT RAIN  44  37  76 E9        30.27R
MIDLAND        DRIZZLE   44  35  73 E8        30.26R
TROY           CLOUDY    46  29  52 NE10G17   30.24F
SAGINAW HB     RAIN      45  36  70 NE9       30.26R
$$
MIZ043>046-050>051-056>058-064>065-071>073-077>080-300200-
SOUTHWEST LOWER MICHIGAN

CITY           SKY/WX    TMP DP  RH WIND       PRES   REMARKS
BATTLE CREEK   CLOUDY    49  43  80 E12       30.15S
BENTON HARBOR  LGT RAIN  48  45  89 NE12      30.10F FOG
BIG RAPIDS     MIX PCPN  45  41  85 CALM      30.24R
COLDWATER      CLOUDY    49  39  69 E12       30.14R
FREMONT        RAIN      46  40  80 E6        30.22F
HOLLAND        LGT RAIN  47  41  80 NE9       30.16F
GRAND RAPIDS   LGT RAIN  45  41  86 NE14      30.21R
IONIA          LGT RAIN  45  38  76 NE14G21   30.20R
KALAMAZOO      CLOUDY    50  41  71 NE8       30.15R
LUDINGTON      CLOUDY    46  32  58 NE6       30.23F
MARSHALL       CLOUDY    51  38  61 E6        30.16R
MOUNT PLEASANT DRIZZLE   43  37  79 E9        30.26F
MUSKEGON       LGT RAIN  47  44  90 E8        30.20F
SOUTH HAVEN    RAIN      46  44  93 NE12G17   30.15R
$$
MIZ016>042-300200-
NORTHERN LOWER MICHIGAN

CITY           SKY/WX    TMP DP  RH WIND       PRES   REMARKS
ALPENA         CLOUDY    47  30  51 CALM      30.29R
BEAVER ISLAND  CLOUDY    43  27  53 NE9G16    30.28R
BELLAIRE       CLOUDY    45  29  53 CALM      30.28R
CADILLAC       CLOUDY    43  30  60 N3        30.23S
CHARLEVOIX     MOCLDY    42  33  69 NE5       30.30R
FRANKFORT      CLOUDY    45  26  48 NE10      30.26S
GAYLORD        MOCLDY    47  26  44 E6        30.27R
GRAYLING       CLOUDY    47  27  45 NE7       30.27R
HARBOR SPRINGS CLOUDY    45  27  49 NE8       30.28R
HOUGHTON LAKE  CLOUDY    47  34  60 SE10      30.27R
MANISTEE       CLOUDY    46  28  49 NE10      30.24F
OSCODA         MOCLDY    47  29  49 NE5       30.29R
PELLSTON       MOCLDY    44  25  47 NE8       30.29R
ROGERS CITY    CLOUDY    43  31  63 NW6       30.29R
TRAVERSE CITY  CLOUDY    43  31  62 N8        30.26R
$$
MIZ007>008-015-300200-
EASTERN UPPER MICHIGAN

CITY           SKY/WX    TMP DP  RH WIND       PRES   REMARKS
KINROSS        PTCLDY    37  27  67 NW16      30.27F WCI  28
MACKINAC ISLAN CLOUDY    40  27  59 N13G22    30.27S WCI  33
NEWBERRY       MOCLDY    35  27  70 N7        30.29F WCI  30
S. S. MARIE    PTCLDY    41  27  57 NW9       30.27F
MUNISING         N/A     37  30  75 N13       30.31F WCI  29
$$
MIZ004>006-011>014-085-300200-
CENTRAL UPPER MICHIGAN

CITY           SKY/WX    TMP DP  RH WIND       PRES   REMARKS
MANISTIQUE     CLOUDY    38  28  65 N8        30.28R WCI  33
ESCANABA       CLOUDY    41  23  48 N13G22    30.29R
SAWYER-GWINN   CLEAR     34  27  75 N12       30.29F WCI  25
$$
MIZ001>003-009>011-084-300200-
WESTERN UPPER MICHIGAN

CITY           SKY/WX    TMP DP  RH WIND       PRES   REMARKS
IRON MOUNTAIN  MOCLDY    44  16  32 NE10G22   30.24S
HOUGHTON       CLOUDY    40  14  34 NE6       30.28F
COPPER HARBOR    N/A     37  22  54 N3        30.32F
IRONWOOD       CLOUDY    38  24  57 CALM      30.28F
$$

ABBREVIATIONS USED IN REMARKS
   TC - TEMPERATURE IN CELSIUS
  WCI - WIND CHILL INDEX
   HX - HEAT INDEX
  VSB - VISIBILITY





USA.gov is the U.S. government's official web portal to all federal, state and local government web resources and services.